Weather History for Meridian NAS, MS

Change the Weather History Date:

Monday, November 19, 2012

  Actual Average Record
Temperature  
Mean Temperature 48 °F -  
Max Temperature 64 °F 63 °F 75 °F (1999)
Min Temperature 32 °F 44 °F 26 °F (2008)
Degree Days  
Heating Degree Days 17    
Moisture  
Dew Point 38 °F    
Average Humidity 76    
Maximum Humidity 93    
Minimum Humidity 39    
Precipitation  
Precipitation 0.00 in - - ()
Sea Level Pressure  
Sea Level Pressure 30.30 in    
Wind  
Wind Speed 0 mph (ENE)    
Max Wind Speed 6 mph    
Max Gust Speed -    
Visibility 10 miles    
Events      
Averages and records for this station are not official NWS values.
T = Trace of Precipitation, MM = Missing Value Source: NWS Daily Summary

Daily Weather History Graph

Daily Weather History Graph

Search for Another Location

Airport:

Trip Planner

Search our weather history database for the weather conditions in past years. The results will help you decide how hot, cold, wet, or windy it might be!

Date:

Astronomy

Nov. 19, 2012 Rise Set
Actual Time 6:28 AM CST 4:51 PM CST
Civil Twilight 6:01 AM CST 5:17 PM CST
Nautical Twilight 5:31 AM CST 5:47 PM CST
Astronomical Twilight 5:02 AM CST 6:16 PM CST
Moon 11:38 AM CST (11/19) 11:09 PM CST (11/19)
Length of Visible Light 11h 15m
Length of Day
10h 23m
Waxing Crescent, 41% of the Moon is Illuminated
Nov 19
Waxing Crescent
Nov 20
First Quarter
Nov 28
Full
Dec 6
Last Quarter
Dec 13
New

Hourly Weather History & Observations

Time (CST) Temp. Dew Point Humidity Pressure Visibility Wind Dir Wind Speed Gust Speed Precip Events Conditions
12:56 AM 37.0 °F 35.1 °F 93% 30.35 in 10.0 mi Calm Calm - N/A   Clear
1:56 AM 36.0 °F 34.0 °F 93% 30.34 in 10.0 mi Calm Calm - N/A   Clear
2:56 AM 35.1 °F 32.0 °F 89% 30.32 in 10.0 mi Calm Calm - N/A   Clear
3:56 AM 34.0 °F 32.0 °F 92% 30.32 in 10.0 mi Calm Calm - N/A   Clear
4:56 AM 33.1 °F 30.0 °F 89% 30.33 in 10.0 mi Calm Calm - N/A   Clear
5:56 AM 32.0 °F 30.0 °F 92% 30.35 in 10.0 mi Calm Calm - N/A   Scattered Clouds
6:56 AM 33.1 °F 30.9 °F 92% 30.35 in 10.0 mi Calm Calm - N/A   Scattered Clouds
7:56 AM 37.0 °F 34.0 °F 89% 30.35 in 10.0 mi Calm Calm - N/A   Mostly Cloudy
8:56 AM 43.0 °F 39.0 °F 86% 30.36 in 8.0 mi Calm Calm - N/A   Mostly Cloudy
9:56 AM 51.1 °F 43.0 °F 74% 30.36 in 10.0 mi Calm Calm - N/A   Mostly Cloudy
10:56 AM 55.9 °F 43.0 °F 62% 30.35 in 10.0 mi Calm Calm - N/A   Mostly Cloudy
11:56 AM 61.0 °F 43.0 °F 52% 30.33 in 10.0 mi Calm Calm - N/A   Mostly Cloudy
12:56 PM 64.0 °F 42.1 °F 45% 30.30 in 10.0 mi Variable 4.6 mph - N/A   Partly Cloudy
1:56 PM 64.9 °F 39.0 °F 39% 30.27 in 10.0 mi Calm Calm - N/A   Clear
2:56 PM 64.9 °F 41.0 °F 42% 30.26 in 10.0 mi Calm Calm - N/A   Clear
3:56 PM 64.0 °F 42.1 °F 45% 30.24 in 10.0 mi ENE 5.8 mph - N/A   Partly Cloudy
4:56 PM 57.0 °F 43.0 °F 59% 30.25 in 10.0 mi Calm Calm - N/A   Partly Cloudy
5:56 PM 54.0 °F 44.1 °F 69% 30.25 in 10.0 mi Calm Calm - N/A   Clear
6:56 PM 48.9 °F 43.0 °F 80% 30.26 in 10.0 mi Calm Calm - N/A   Clear
7:56 PM 46.0 °F 42.1 °F 86% 30.27 in 10.0 mi Calm Calm - N/A   Clear
8:56 PM 44.1 °F 41.0 °F 89% 30.26 in 10.0 mi Calm Calm - N/A   Clear
9:56 PM 44.1 °F 41.0 °F 89% 30.25 in 10.0 mi Calm Calm - N/A   Clear
10:56 PM 41.0 °F 39.0 °F 93% 30.25 in 10.0 mi Calm Calm - N/A   Clear
11:56 PM 39.9 °F 37.9 °F 93% 30.24 in 10.0 mi Calm Calm - N/A   Scattered Clouds